Tracking 19920 objects as of 14-Oct-2019
HD Live streaming from Space Station
objects crossing your sky now

DELTA 1 DEB

Track DELTA 1 DEB now!
10-day predictions


NORAD ID: 12825
Int'l Code: 1978-026EW
Perigee: 878.5 km
Apogee: 966.3 km
Inclination: 99.4 °
Period: 103.3 minutes
Semi major axis: 7293 km
RCS: 0.046 m2 (small)
Launch date: March 5, 1978
Source: United States (US)
Launch site: AIR FORCE WESTERN TEST RANGE (AFWTR)

Note: This is SATELLITE DEBRIS
aabbcc
Your satellite tracking list
Your tracking list is empty




NASA's NSSDC Master Catalog

Two Line Element Set (TLE):
1 12825U 78026EW  19285.92417626 +.00000114 +00000-0 +11985-3 0  9996
2 12825 099.3922 069.6753 0060182 242.6318 273.8212 13.93824890965049
Source of the keplerian elements: AFSPC